Regional Weather Roundup
Issued by NWS Green Bay, WI

Home | Current Version | Previous Version | Text Only | Print | Product List | Glossary On
Versions: 1 2 3 4 5 6 7 8 9 10 11 12 13 14 15 16 17 18 19 20 21 22 23 24 25 26 27 28 29 30 31 32 33 34 35 36 37 38 39 40 41 42 43 44 45 46 47 48 49 50
000
ASUS43 KGRB 230111
RWRGRB

NORTH-CENTRAL AND NORTHEAST WISCONSIN REGIONAL WEATHER ROUNDUP
NATIONAL WEATHER SERVICE GREEN BAY WI
800 PM CDT MON MAY 22 2017

WIZ005-009-010>012-018-019-230200-
NORTH CENTRAL WISCONSIN

CITY           SKY/WX    TMP DP  RH WIND       PRES   REMARKS
IRONWOOD       CLOUDY    52  44  74 W5        29.83S
MANITOWISH WTR CLOUDY    50  44  80 NW3       29.84R
ARBOR VITAE    CLOUDY    52  43  71 CALM      29.83S
EAGLE RIVER    CLOUDY    51  40  65 W3        29.84R
LAND O LAKES   CLOUDY    51  42  71 W5        29.85R
RHINELANDER    MOCLDY    55  41  59 NW3       29.84R
PHILLIPS       CLOUDY    53  43  69 CALM      29.83R
ANTIGO         MOCLDY    55  43  64 NW7       29.83S
TOMAHAWK       PTCLDY    53  40  62 CALM      29.84R
MERRILL        CLEAR     58  41  54 NW7       29.83S
$$

WIZ013-073-230200-
NORTHEAST WISCONSIN

CITY           SKY/WX    TMP DP  RH WIND       PRES   REMARKS
IRON MOUNTAIN  PTCLDY    54  40  59 NW7       29.82R
MARINETTE      LGT RAIN  54  50  86 CALM      29.83R
OCONTO         CLOUDY    57  46  66 E3        29.82R
$$

WIZ017-030-035>037-045-230200-
CENTRAL WISCONSIN

CITY           SKY/WX    TMP DP  RH WIND       PRES   REMARKS
MEDFORD        MOCLDY    55  42  62 N7        29.82S
WAUSAU         MOCLDY    60  42  51 NW6       29.80S
MOSINEE        PTCLDY    57  45  62 NW8       29.83R
MARSHFIELD     PTCLDY    60  44  55 N7        29.81R
WISC RAPIDS    PTCLDY    63  44  50 NW5       29.82R
STEVENS POINT  CLEAR     60  43  54 N3        29.82S
WAUPACA        CLOUDY    65  48  55 SW5       29.81S
SHAWANO        CLOUDY    63  45  50 NW6       29.82R
CLINTONVILLE   CLOUDY    64  41  42 NW6       29.81R
WAUTOMA        PTCLDY    64  50  60 SW7       29.81S
$$

WIZ038-039-048-051-230200-
FOX VALLEY

CITY           SKY/WX    TMP DP  RH WIND       PRES   REMARKS
NWS GREEN BAY  CLOUDY    64  51  62 SW8G17    29.81R
APPLETON       PTCLDY    63  45  51 SW12      29.80R
OSHKOSH        CLOUDY    62  51  67 S8        29.82R
FOND DU LAC    CLOUDY    62  50  64 S8        29.83S
$$

WIZ022-050-052-230200-
EAST CENTRAL WISCONSIN

CITY           SKY/WX    TMP DP  RH WIND       PRES   REMARKS
EPHRAIM        CLOUDY    51  49  93 CALM      29.82S
WASHINGTON ISL CLOUDY    50  47  90 CALM      29.82S
STURGEON BAY   CLOUDY    54  46  76 E5        29.84R
MANITOWOC      CLOUDY    63  49  60 SW12      29.83R
SHEBOYGAN      CLOUDY    62  51  67 SW10      29.84S
$$

LMZ563-521-522-541>543-230200-
LAKESHORE

STATION/POSITION TIME  TEMP    WIND        PRES    VSBY  WAVE
                       AIR SEA DIR/SP/G                  HT/PER
                 (UTC) (F)     (DEG/KT/KT) (MB)    (MI)  (FT/S)
SHEBOYGAN LKSHOR 0100   51     180/ 17/ 18 1010.5R
KEWAUNEE LKSHORE 0048   65     220/  7/ 11 1009.1R
NORTHPORT PIER   0040   50     320/  4/  7 1010.2R
N MID LAKE BUOY  0050   41 39  130/  2/  4 1011.1          3/ 5
CHAMBERS ISLAND  0040   52      40/  4/  8 1009.8R
MENOMINEE LKSHOR 0048           20/  9/ 11 1009.1R
$$




USA.gov is the U.S. government's official web portal to all federal, state and local government web resources and services.